TimeEDT,TemperatureF,Dew PointF,Humidity,Sea Level PressureIn,VisibilityMPH,Wind Direction,Wind SpeedMPH,Gust SpeedMPH,PrecipitationIn,Events,Conditions,WindDirDegrees,DateUTC
12:14 AM,51.1,30.0,44,29.90,10.0,South,12.7,25.3,N/A,,Overcast,190,2012-10-09 04:14:00
12:34 AM,50.9,29.5,44,29.88,10.0,South,17.3,25.3,N/A,,Overcast,180,2012-10-09 04:34:00
12:54 AM,50.9,29.1,43,29.87,10.0,South,17.3,29.9,N/A,,Overcast,180,2012-10-09 04:54:00
1:14 AM,50.9,29.5,44,29.87,10.0,South,12.7,27.6,N/A,,Overcast,190,2012-10-09 05:14:00
1:35 AM,50.7,30.6,46,29.86,10.0,South,16.1,25.3,N/A,,Overcast,190,2012-10-09 05:35:00
1:54 AM,50.7,30.6,46,29.86,10.0,South,15.0,25.3,N/A,,Overcast,190,2012-10-09 05:54:00
2:14 AM,49.6,32.5,52,29.86,10.0,South,16.1,27.6,N/A,Rain,Light Rain,190,2012-10-09 06:14:00
2:54 AM,50.2,32.2,50,29.85,10.0,South,12.7,31.1,N/A,,Overcast,180,2012-10-09 06:54:00
3:14 AM,50.5,32.2,49,29.83,10.0,South,13.8,24.2,N/A,,Overcast,190,2012-10-09 07:14:00
3:54 AM,50.9,32.9,50,29.82,10.0,South,16.1,25.3,N/A,,Overcast,190,2012-10-09 07:54:00
4:15 AM,50.9,33.3,51,29.81,10.0,South,17.3,31.1,N/A,,Overcast,190,2012-10-09 08:15:00
4:34 AM,51.1,33.8,52,29.81,10.0,SSW,18.4,31.1,N/A,,Overcast,200,2012-10-09 08:34:00
4:54 AM,50.9,34.0,52,29.80,10.0,South,15.0,29.9,N/A,,Overcast,190,2012-10-09 08:54:00
5:15 AM,50.9,34.3,53,29.81,10.0,SSW,13.8,28.8,N/A,,Mostly Cloudy,200,2012-10-09 09:15:00
5:34 AM,50.9,35.2,55,29.81,10.0,SSW,12.7,21.9,N/A,,Mostly Cloudy,200,2012-10-09 09:34:00
5:54 AM,50.5,35.4,56,29.80,10.0,SSW,12.7,25.3,N/A,,Overcast,200,2012-10-09 09:54:00
6:15 AM,50.9,35.8,56,29.81,10.0,SSW,13.8,25.3,N/A,,Overcast,200,2012-10-09 10:15:00
6:34 AM,50.9,36.0,57,29.80,10.0,SSW,15.0,24.2,N/A,,Mostly Cloudy,200,2012-10-09 10:34:00
6:54 AM,50.9,36.5,58,29.80,10.0,SSW,15.0,28.8,N/A,,Mostly Cloudy,200,2012-10-09 10:54:00
7:15 AM,50.5,36.5,59,29.80,10.0,SSW,12.7,24.2,N/A,,Mostly Cloudy,200,2012-10-09 11:15:00
7:54 AM,50.4,37.0,60,29.79,10.0,SSW,13.8,25.3,N/A,,Overcast,200,2012-10-09 11:54:00
8:15 AM,50.4,37.4,61,29.79,10.0,South,15.0,21.9,N/A,,Overcast,190,2012-10-09 12:15:00
8:34 AM,50.4,37.4,61,29.80,10.0,SSW,13.8,24.2,N/A,,Overcast,200,2012-10-09 12:34:00
8:54 AM,50.4,37.6,62,29.80,10.0,SSW,15.0,24.2,N/A,,Overcast,200,2012-10-09 12:54:00
9:15 AM,50.5,37.8,62,29.80,10.0,SSW,15.0,25.3,N/A,,Overcast,210,2012-10-09 13:15:00
9:34 AM,50.4,39.0,65,29.80,10.0,SSW,15.0,23.0,N/A,,Overcast,210,2012-10-09 13:34:00
9:54 AM,50.2,39.4,66,29.80,10.0,SSW,13.8,25.3,N/A,,Overcast,200,2012-10-09 13:54:00
10:15 AM,50.2,40.5,69,29.80,10.0,SSW,13.8,20.7,N/A,,Overcast,200,2012-10-09 14:15:00
10:34 AM,50.4,41.0,70,29.80,10.0,SSW,10.4,23.0,N/A,,Overcast,210,2012-10-09 14:34:00
10:54 AM,50.2,42.6,75,29.80,10.0,SSW,12.7,23.0,N/A,,Overcast,210,2012-10-09 14:54:00
11:14 AM,50.9,43.0,74,29.80,10.0,SSW,9.2,18.4,N/A,,Overcast,210,2012-10-09 15:14:00
11:34 AM,50.9,43.5,76,29.80,10.0,SSW,11.5,20.7,N/A,,Overcast,200,2012-10-09 15:34:00
11:54 AM,51.3,43.9,76,29.80,10.0,SSW,12.7,21.9,N/A,,Overcast,210,2012-10-09 15:54:00
12:14 PM,51.1,44.1,77,29.80,10.0,SSW,11.5,20.7,N/A,,Overcast,210,2012-10-09 16:14:00
12:34 PM,50.7,44.6,80,29.80,10.0,SSW,11.5,23.0,N/A,,Drizzle,210,2012-10-09 16:34:00
12:54 PM,50.2,45.0,82,29.80,10.0,SW,9.2,20.7,N/A,,Light Drizzle,220,2012-10-09 16:54:00
1:14 PM,49.8,45.5,85,29.78,10.0,SSW,8.1,20.7,N/A,Rain,Rain,210,2012-10-09 17:14:00
1:34 PM,49.3,45.5,87,29.78,10.0,SW,8.1,-,N/A,Rain,Rain,220,2012-10-09 17:34:00
1:54 PM,49.1,45.5,87,29.77,10.0,SSW,5.8,-,N/A,Rain,Light Rain,210,2012-10-09 17:54:00
2:14 PM,48.9,45.7,89,29.76,10.0,SSW,3.5,-,N/A,Rain,Light Rain,210,2012-10-09 18:14:00
2:34 PM,48.6,45.5,89,29.76,10.0,SSW,5.8,-,N/A,Rain,Light Rain,200,2012-10-09 18:34:00
2:54 PM,48.7,45.3,88,29.75,10.0,South,4.6,-,N/A,Rain,Light Rain,190,2012-10-09 18:54:00
3:14 PM,48.7,45.0,87,29.74,10.0,South,3.5,-,N/A,Rain,Light Rain,190,2012-10-09 19:14:00
3:34 PM,49.1,45.0,86,29.73,10.0,Calm,Calm,-,N/A,Rain,Light Rain,0,2012-10-09 19:34:00
3:54 PM,49.1,45.3,87,29.72,10.0,South,4.6,-,N/A,Rain,Light Rain,180,2012-10-09 19:54:00
4:14 PM,49.1,45.0,86,29.71,10.0,Calm,Calm,-,N/A,Rain,Light Rain,0,2012-10-09 20:14:00
4:34 PM,49.1,45.5,87,29.69,10.0,ESE,4.6,-,N/A,,Overcast,120,2012-10-09 20:34:00
4:54 PM,49.3,45.1,86,29.68,10.0,Calm,Calm,-,N/A,,Overcast,0,2012-10-09 20:54:00
5:14 PM,48.9,46.6,92,29.67,10.0,Calm,Calm,-,N/A,Rain,Light Rain,0,2012-10-09 21:14:00
5:34 PM,48.4,46.8,94,29.66,7.0,Calm,Calm,-,N/A,,Overcast,0,2012-10-09 21:34:00
5:54 PM,48.6,46.0,91,29.66,10.0,WSW,6.9,-,N/A,,Overcast,250,2012-10-09 21:54:00
6:14 PM,49.3,46.4,90,29.66,7.0,SW,5.8,-,N/A,Rain,Rain,220,2012-10-09 22:14:00
6:35 PM,49.1,46.4,90,29.67,7.0,SW,8.1,-,N/A,Rain,Rain,230,2012-10-09 22:35:00
6:54 PM,50.0,47.3,90,29.67,7.0,SW,12.7,19.6,N/A,Rain,Light Rain,220,2012-10-09 22:54:00
7:14 PM,49.1,45.9,89,29.67,7.0,WSW,15.0,31.1,N/A,Rain,Light Rain,240,2012-10-09 23:14:00
7:34 PM,49.1,46.4,90,29.67,7.0,WSW,16.1,29.9,N/A,Rain,Light Rain,240,2012-10-09 23:34:00
7:54 PM,48.6,44.6,86,29.68,7.0,WSW,17.3,35.7,N/A,Rain,Light Rain,240,2012-10-09 23:54:00
8:14 PM,48.7,45.3,88,29.67,10.0,SW,17.3,35.7,N/A,Rain,Light Rain,230,2012-10-10 00:14:00
8:35 PM,49.1,43.7,82,29.67,10.0,SW,18.4,32.2,0.01,,Light Drizzle,230,2012-10-10 00:35:00
8:54 PM,49.1,43.5,81,29.67,10.0,WSW,24.2,34.5,0.01,Rain,Light Rain,250,2012-10-10 00:54:00
9:14 PM,46.6,42.6,86,29.68,10.0,West,19.6,32.2,0.01,Rain,Light Rain,260,2012-10-10 01:14:00
9:35 PM,46.0,42.1,86,29.69,7.0,West,15.0,26.5,0.02,Rain,Light Rain,260,2012-10-10 01:35:00
9:54 PM,45.5,41.9,87,29.69,7.0,West,15.0,23.0,0.05,,Overcast,280,2012-10-10 01:54:00
10:14 PM,44.6,41.9,90,29.70,7.0,WNW,16.1,25.3,0.02,,Overcast,290,2012-10-10 02:14:00
10:54 PM,43.0,41.0,93,29.71,10.0,West,9.2,-,0.07,Rain,Light Rain,280,2012-10-10 02:54:00
11:14 PM,43.0,40.3,90,29.71,10.0,West,9.2,19.6,0.01,Rain,Rain,270,2012-10-10 03:14:00
11:35 PM,42.8,38.5,85,29.71,10.0,West,15.0,23.0,0.01,,Overcast,280,2012-10-10 03:35:00
11:54 PM,42.4,37.6,83,29.71,10.0,West,11.5,17.3,0.01,,Overcast,280,2012-10-10 03:54:00